This is the latest recevied weather packets stored in our database for station/object NW5W-12. If no packets are shown the sender has not sent any weather packets the latest 10 day(s).
| Time | Temp. | Humidity | Pressure | Rain* | Wind** | Luminosity | Snow |
|---|---|---|---|---|---|---|---|
| 1777585131 | 12.78° C | 37% | 1018.2 hPa | 0 mm | - | - | - |
| 1777584831 | 12.78° C | 33% | 1018.2 hPa | 0 mm | - | - | - |
| 1777584531 | 13.33° C | 32% | 1018.2 hPa | 0 mm | - | - | - |
| 1777584231 | 13.33° C | 33% | 1018.2 hPa | 0 mm | - | - | - |
| 1777583931 | 12.78° C | 35% | 1018.2 hPa | 0 mm | - | - | - |
| 1777583631 | 12.22° C | 34% | 1018.3 hPa | 0 mm | - | - | - |
| 1777583331 | 12.22° C | 36% | 1018.4 hPa | 0 mm | - | - | - |
| 1777583031 | 12.22° C | 37% | 1018.3 hPa | 0 mm | - | - | - |
| 1777582731 | 12.22° C | 37% | 1018.3 hPa | 0 mm | - | - | - |
| 1777582431 | 12.22° C | 38% | 1018.4 hPa | 0 mm | - | - | - |
| 1777582131 | 12.22° C | 40% | 1018.3 hPa | 0 mm | - | - | - |
| 1777581831 | 11.11° C | 42% | 1018.4 hPa | 0 mm | - | - | - |
| 1777581531 | 11.11° C | 41% | 1018.4 hPa | 0 mm | - | - | - |
| 1777581231 | 10.56° C | 40% | 1018.3 hPa | 0 mm | - | - | - |
| 1777580931 | 11.11° C | 40% | 1018.3 hPa | 0 mm | - | - | - |
| 1777580630 | 11.67° C | 40% | 1018.2 hPa | 0 mm | - | - | - |
| 1777580331 | 12.22° C | 43% | 1018.2 hPa | 0 mm | - | - | - |
| 1777580030 | 11.11° C | 43% | 1018.3 hPa | 0 mm | - | - | - |
| 1777579731 | 11.67° C | 42% | 1018.3 hPa | 0 mm | - | - | - |
| 1777579431 | 11.67° C | 42% | 1018.3 hPa | 0 mm | - | - | - |
| 1777579130 | 11.67° C | 40% | 1018.4 hPa | 0 mm | - | - | - |
| 1777578831 | 12.78° C | 39% | 1018.3 hPa | 0 mm | - | - | - |
| 1777578531 | 12.78° C | 36% | 1018.4 hPa | 0 mm | - | - | - |
| 1777578231 | 12.78° C | 35% | 1018.4 hPa | 0 mm | - | - | - |
| 1777577631 | 13.33° C | 33% | 1018.5 hPa | 0 mm | - | - | - |
* Rain since midnight (hover to see other rain measurements)
** Current wind speed in m/s (hover to see current wind gust speed)